Location: Bluff Heights
(33.7692°N, 118.1592°W)
Time: 13:45:58
(UTC+00:00)

S-56A Canister/Altair - Pass Details

Date: 29 July 2021
Orbit: 632 x 2500 km, 38.9° (Epoch: 25 September)

Event Time Altitude Azimuth Distance (km) Brightness Sun altitude
Rises 03:10:43 0° 283° (WNW) 6,162 14.3 -3.6°
Reaches altitude 10° 03:14:48 10° 285° (WNW) 5,166 13.5 -4.4°
Maximum altitude 03:30:00 76° 12° (NNE) 2,288 10.0 -7.2°
Drops below altitude 10° 03:41:38 10° 98° (E) 4,073 10.6 -9.3°
Enters shadow 03:42:17 - 99° (E) 4,246 10.7 -9.4°
